sat.trackr.live / text

‹ back to catalog

GLOBALSTAR M079

NORAD 37188 · 2010-054A

PAYLOAD ACTIVE UNKNOWN

§ Identity

Operator
Country
GLOB
Launch date
2010-10-19
Launch site
TYMSC
Launch vehicle
Mass (kg)
RCS (m²)
4.83

Purposes: comms

External: N2YO · Heavens-Above · Gunter

§ Orbital elements

Epoch: 2026-05-25T02:03:59.501376Z

Period
114.08 min
Inclination
52.0013°
Eccentricity
0.0000161
Mean motion
12.62265829 rev/d
Perigee alt
1,413.5 km
Apogee alt
1,413.7 km
Semi-major
7,791.7 km
B*
2.4676e-5
RAAN
178.9937°
Arg perigee
289.7015°
Mean anomaly
97.0527°
Rev number
71,963

§ Raw data

GLOBALSTAR M0791 37188U 10054A   26145.08610534 -.00000099  00000+0  24676-4 0  99992 37188  52.0013 178.9937 0000161 289.7015  97.0527 12.62265829719633

JSON: /api/v1/satellites/37188 · /tle

For live sub-satellite position, see the globe view (requires WebGL).

§ Visibility from observer

Set your observer location to see the next 7 days of passes ≥ 10°. The values pass through the URL so the page stays shareable.

No JS? Fill the form by hand. The geolocation button needs JavaScript.